Weather Service Report


688 
ASUS41 KCLE 270312
RWRCLE
OHIO REGIONAL WEATHER ROUNDUP
NATIONAL WEATHER SERVICE WILMINGTON, OH
1100 PM EDT FRI AUG 26 2016

NOTE: "FAIR" INDICATES FEW OR NO CLOUDS BELOW 12,000 FEET WITH NO
SIGNIFICANT WEATHER AND/OR OBSTRUCTIONS TO VISIBILITY.

OHZ001>008-015>018-024>027-034-035-043-044-270400-
   NORTHWEST OHIO
  
CITY           SKY/WX    TMP DP  RH WIND       PRES   REMARKS
DEFIANCE       FAIR      74  67  78 CALM      30.14F                  
FINDLAY        FAIR      75  63  66 E6        30.15S                  
TOLEDO EXPRESS FAIR      69  69 100 CALM      30.15S                  
TOLEDO EXEC    FAIR      74  68  81 E3        30.16S                  
LIMA           FAIR      73  70  90 E5        30.15F                  
$$
 
OHZ009>014-019>023-028>033-038-089-270400-
   NORTHEAST OHIO
  
CITY           SKY/WX    TMP DP  RH WIND       PRES   REMARKS
CLE-HOPKINS    FAIR      71  60  68 S3        30.19R                  
CLE-LAKEFRONT  FAIR      76  63  64 CALM      30.16R                  
CUY CO. ARPT   CLEAR     68  63  83 CALM      30.18R                  
LORAIN-ELYRIA  FAIR      64  58  80 CALM      30.18R                  
ASHTABULA      FAIR      62  62 100 CALM      30.19R                  
AKRON-CANTON   FAIR      69  57  65 NE6       30.18R                  
WOOSTER        FAIR      65  61  87 CALM      30.19S                  
MANSFIELD      FAIR      71  59  65 NE3       30.19S                  
YOUNGSTOWN     FAIR      69  62  78 NE5       30.19R                  
$$
 
OHZ042-051>053-060>062-070>072-077>081-270400-
  SOUTHWEST OHIO
  
CITY           SKY/WX    TMP DP  RH WIND       PRES   REMARKS
CINC-COVINGTON FAIR      76  73  91 N5        30.13S                  
CINC-LUNKEN    NOT AVBL                                               
HAMILTON       FAIR      71  69  93 NW6       30.14S                  
DAYTON         LGT RAIN  73  69  87 SE7       30.14F                  
WRIGHT-PAT AFB MOCLDY    75  75 100 E2        30.13F                  
DAYTON GENERAL FAIR      72  68  87 E8        30.13F                  
WILMINGTON     FAIR      77  73  87 E5        30.15S                  
$$

OHZ036-037-039>041-045>050-054>059-063>069-073>076-082>088-270400-
  CENTRAL AND SOUTHEAST OHIO
  
CITY           SKY/WX    TMP DP  RH WIND       PRES   REMARKS
COLUMBUS       MOCLDY    77  68  73 NE3       30.15S                  
OSU AIRPORT    FAIR      76  69  79 N5        30.16R                  
BOLTON FIELD   FAIR      74  69  83 NE3       30.16F                  
RICKENBACK AFB FAIR      76  69  80 NE3       30.15S                  
NEWARK         FAIR      72  70  93 CALM      30.16R                  
MARION         FAIR      72  64  76 CALM      30.17S                  
LANCASTER      FAIR      74  72  93 CALM      30.16R                  
ZANESVILLE     FAIR      74  71  91 CALM      30.17R                  
NEW PHILLY     FAIR      71  64  78 CALM      30.18R                  
$$
  

Return to Home page


Western Regional Climate Center, wrcc@dri.edu